{"data":{"norad_id":59879,"intl_designator":"2024-098X","name":"STARLINK-31926","alt_names":[],"object_type":"PAYLOAD","status":"ACTIVE","operator":null,"country":"US","launch_date":"2024-05-24","launch_site_code":"AFETR","launch_vehicle":null,"mission":null,"orbit_class":"UNKNOWN","rcs_meters":null,"size_class":null,"mass_kg":null,"dimensions":null,"purposes":["comms"],"wikipedia_slug":null,"has_3d_model":false,"image_url":null,"decayed_at":null,"tle_current":{"epoch":"2026-09-21T00:07:04.000224Z","epoch_age_seconds":130863,"freshness":"FRESH","line1":"1 59879U 24098X   26264.00490741  .00000536  00000+0  29021-4 0  9997","line2":"2 59879  43.0039 244.4552 0001186 263.4513  96.6204 15.27575318131832","mean_motion":15.27575318,"eccentricity":0.0001186,"inclination_deg":43.0039,"raan_deg":244.4552,"arg_perigee_deg":263.4513,"mean_anomaly_deg":96.6204,"bstar":2.9021e-5,"rev_number":13183,"period_min":94.267037640104,"perigee_km":482.24937733408,"apogee_km":483.87685400152,"semimajor_km":6861.2001156678,"source":"CELESTRAK","updated_at":"2026-09-22T09:00:49.104771Z"}}}